Location: Dos Palmas
(32.4468°N, 116.8732°W)
Time: 13:35:52
(UTC+00:00)

SL-14 R/B - Pass Details

Date: 20 June 2021
Orbit: 518 x 554 km, 82.4° (Epoch: 30 July)

Event Time Altitude Azimuth Distance (km) Brightness Sun altitude
Exits shadow 04:46:37 31° 80° (E) 979 4.3 -19.2°
Drops below altitude 10° 04:49:50 10° 28° (NNE) 1,833 6.2 -19.6°
Sets 04:52:10 0° 19° (NNE) 2,728 7.3 -20.0°
